When you browse on this site, cookies collect data to enhance your experience and personalize the content and advertising you see.
Visit our Privacy Policy to learn more. By continuing to use the site, you agree to this use of cookies and data.
  • In United Kingdom
  • List of Countries
  • For 7 days
  • Water Temperature
  • Satellite Maps
  • Weather Map
  • Weather Widgets
  • user-avatar
    Login

    Hourly Weather Santa Maria Asuncion Tlaxiaco

    Today, 20 January, Sunday

    Time Temperature Precipitation Wind Pressure Humidity
    00:00 +13°C° 0 mm 2 mps 595 mmHg 85%
    01:00 +12°C° 0 mm 2 mps 594 mmHg 84%
    02:00 +12°C° 0 mm 2 mps 594 mmHg 84%
    03:00 +12°C° 0 mm 2 mps 594 mmHg 85%
    04:00 +10°C° 0 mm 2 mps 594 mmHg 87%
    05:00 +9°C° 0 mm 2 mps 594 mmHg 88%
    06:00 +10°C° 0 mm 2 mps 595 mmHg 82%
    07:00 +11°C° 0 mm 3 mps 595 mmHg 76%
    08:00 +12°C° 0 mm 3 mps 596 mmHg 70%
    09:00 +14°C° 0 mm 3 mps 597 mmHg 63%
    10:00 +17°C° 0 mm 3 mps 597 mmHg 55%
    11:00 +19°C° 0 mm 3 mps 598 mmHg 47%
    12:00 +20°C° 0 mm 2 mps 598 mmHg 45%
    13:00 +20°C° 0 mm 2 mps 598 mmHg 44%
    14:00 +20°C° 0 mm 2 mps 597 mmHg 42%
    15:00 +19°C° 0 mm 2 mps 597 mmHg 48%
    16:00 +17°C° 0 mm 2 mps 596 mmHg 53%
    17:00 +15°C° 0 mm 2 mps 595 mmHg 59%
    18:00 +14°C° 0 mm 2 mps 595 mmHg 63%
    19:00 +12°C° 0 mm 2 mps 595 mmHg 68%
    20:00 +9°C° 0 mm 2 mps 594 mmHg 73%
    21:00 +8°C° 0 mm 2 mps 594 mmHg 74%
    22:00 +7°C° 0 mm 2 mps 594 mmHg 76%
    23:00 +7°C° 0 mm 2 mps 594 mmHg 77%

    Tomorrow, 21 January, Monday

    Time Temperature Precipitation Wind Pressure Humidity
    00:00 +6°C° 0 mm 2 mps 593 mmHg 75%
    01:00 +6°C° 0 mm 2 mps 593 mmHg 72%
    02:00 +6°C° 0 mm 2 mps 593 mmHg 70%
    03:00 +6°C° 0 mm 2 mps 593 mmHg 68%
    04:00 +6°C° 0 mm 2 mps 592 mmHg 65%
    05:00 +6°C° 0 mm 2 mps 592 mmHg 63%
    06:00 +8°C° 0 mm 2 mps 594 mmHg 56%
    07:00 +10°C° 0 mm 2 mps 595 mmHg 49%
    08:00 +13°C° 0 mm 2 mps 596 mmHg 42%
    09:00 +16°C° 0 mm 1 mps 597 mmHg 35%
    10:00 +20°C° 0 mm 1 mps 598 mmHg 28%
    11:00 +22°C° 0 mm 1 mps 599 mmHg 21%
    12:00 +23°C° 0 mm 1 mps 598 mmHg 21%
    13:00 +23°C° 0 mm 1 mps 598 mmHg 20%
    14:00 +23°C° 0 mm 1 mps 597 mmHg 19%
    15:00 +21°C° 0 mm 1 mps 596 mmHg 27%
    16:00 +19°C° 0 mm 1 mps 595 mmHg 34%
    17:00 +18°C° 0 mm 1 mps 595 mmHg 41%
    18:00 +15°C° 0 mm 1 mps 594 mmHg 46%
    19:00 +13°C° 0 mm 1 mps 594 mmHg 51%
    20:00 +12°C° 0 mm 1 mps 594 mmHg 56%
    21:00 +12°C° 0 mm 1 mps 594 mmHg 56%
    22:00 +11°C° 0 mm 1 mps 594 mmHg 56%
    23:00 +11°C° 0 mm 1 mps 594 mmHg 56%

    Day after tomorrow, 22 January, Tuesday

    Time Temperature Precipitation Wind Pressure Humidity
    00:00 +10°C° 0 mm 1 mps 593 mmHg 57%
    01:00 +10°C° 0 mm 1 mps 593 mmHg 58%
    02:00 +10°C° 0 mm 1 mps 592 mmHg 59%
    03:00 +10°C° 0 mm 1 mps 592 mmHg 59%
    04:00 +9°C° 0 mm 1 mps 592 mmHg 59%
    05:00 +9°C° 0 mm 1 mps 592 mmHg 59%
    06:00 +11°C° 0 mm 1 mps 593 mmHg 53%
    07:00 +13°C° 0 mm 0 mps 595 mmHg 47%
    08:00 +15°C° 0 mm 0 mps 596 mmHg 40%
    09:00 +19°C° 0 mm 1 mps 596 mmHg 36%
    10:00 +19°C° 0 mm 2 mps 597 mmHg 33%
    11:00 +21°C° 0 mm 2 mps 597 mmHg 29%
    12:00 +21°C° 0 mm 3 mps 597 mmHg 29%
    13:00 +22°C° 0 mm 3 mps 596 mmHg 29%
    14:00 +22°C° 0 mm 3 mps 595 mmHg 29%
    15:00 +20°C° 0 mm 3 mps 595 mmHg 36%
    16:00 +18°C° 0 mm 2 mps 594 mmHg 42%
    17:00 +17°C° 0 mm 2 mps 594 mmHg 49%
    18:00 +15°C° 0 mm 1 mps 593 mmHg 54%
    19:00 +14°C° 0 mm 1 mps 593 mmHg 58%
    20:00 +12°C° 0 mm 1 mps 593 mmHg 62%
    21:00 +12°C° 0 mm 1 mps 593 mmHg 63%
    22:00 +11°C° 0 mm 1 mps 593 mmHg 63%
    23:00 +11°C° 0 mm 1 mps 593 mmHg 64%

    23 January, Wednesday

    Time Temperature Precipitation Wind Pressure Humidity
    00:00 +11°C° 0 mm 1 mps 593 mmHg 65%
    01:00 +11°C° 0 mm 1 mps 592 mmHg 66%
    02:00 +10°C° 0 mm 1 mps 592 mmHg 67%
    03:00 +10°C° 0 mm 1 mps 592 mmHg 68%
    04:00 +10°C° 0 mm 1 mps 591 mmHg 68%
    05:00 +10°C° 0 mm 1 mps 591 mmHg 69%
    06:00 +12°C° 0 mm 1 mps 593 mmHg 63%
    07:00 +14°C° 0 mm 1 mps 594 mmHg 56%
    08:00 +16°C° 0 mm 0 mps 595 mmHg 49%
    09:00 +19°C° 0 mm 1 mps 596 mmHg 42%
    10:00 +21°C° 0 mm 1 mps 597 mmHg 35%
    11:00 +23°C° 0 mm 2 mps 597 mmHg 28%
    12:00 +23°C° 0 mm 2 mps 597 mmHg 27%
    13:00 +24°C° 0 mm 2 mps 596 mmHg 27%
    14:00 +24°C° 0 mm 2 mps 595 mmHg 26%
    15:00 +21°C° 0 mm 2 mps 595 mmHg 32%
    16:00 +20°C° 0 mm 2 mps 594 mmHg 38%
    17:00 +18°C° 0 mm 2 mps 594 mmHg 44%
    18:00 +16°C° 0 mm 1 mps 594 mmHg 49%
    19:00 +14°C° 0 mm 1 mps 594 mmHg 54%
    20:00 +13°C° 0 mm 1 mps 594 mmHg 59%
    21:00 +12°C° 0 mm 1 mps 594 mmHg 65%
    22:00 +12°C° 0 mm 1 mps 594 mmHg 70%
    23:00 +12°C° 0 mm 2 mps 594 mmHg 76%

    24 January, Thursday

    Time Temperature Precipitation Wind Pressure Humidity
    00:00 +10°C° 0 mm 2 mps 593 mmHg 81%
    01:00 +10°C° 0 mm 2 mps 593 mmHg 85%
    02:00 +9°C° 0 mm 2 mps 592 mmHg 90%
    03:00 +9°C° 0 mm 2 mps 592 mmHg 90%
    04:00 +9°C° 0 mm 2 mps 592 mmHg 91%
    05:00 +9°C° 0 mm 2 mps 592 mmHg 92%
    06:00 +10°C° 0 mm 2 mps 593 mmHg 84%
    07:00 +12°C° 0 mm 2 mps 594 mmHg 76%
    08:00 +14°C° 0 mm 2 mps 596 mmHg 68%
    09:00 +16°C° 0 mm 2 mps 596 mmHg 58%
    10:00 +19°C° 0 mm 1 mps 597 mmHg 49%
    11:00 +22°C° 0 mm 1 mps 598 mmHg 39%
    12:00 +22°C° 0 mm 1 mps 597 mmHg 37%
    13:00 +23°C° 0 mm 1 mps 597 mmHg 35%
    14:00 +23°C° 0 mm 2 mps 596 mmHg 33%
    15:00 +21°C° 0 mm 2 mps 596 mmHg 39%
    16:00 +20°C° 0 mm 1 mps 595 mmHg 44%
    17:00 +19°C° 0 mm 1 mps 595 mmHg 50%
    18:00 +16°C° 0 mm 1 mps 595 mmHg 56%
    19:00 +14°C° 0 mm 1 mps 594 mmHg 63%
    20:00 +13°C° 0 mm 1 mps 594 mmHg 69%
    21:00 +12°C° 0 mm 1 mps 594 mmHg 71%
    22:00 +12°C° 0 mm 1 mps 594 mmHg 73%
    23:00 +11°C° 0 mm 1 mps 594 mmHg 75%

    25 January, Friday

    Time Temperature Precipitation Wind Pressure Humidity
    00:00 +11°C° 0 mm 1 mps 593 mmHg 75%
    01:00 +11°C° 0 mm 1 mps 593 mmHg 75%
    02:00 +11°C° 0 mm 1 mps 593 mmHg 75%
    03:00 +11°C° 0 mm 1 mps 593 mmHg 74%
    04:00 +10°C° 0 mm 1 mps 593 mmHg 73%
    05:00 +10°C° 0 mm 1 mps 593 mmHg 73%
    06:00 +12°C° 0 mm 1 mps 594 mmHg 66%
    07:00 +14°C° 0 mm 1 mps 596 mmHg 60%
    08:00 +16°C° 0 mm 2 mps 597 mmHg 53%
    09:00 +18°C° 0 mm 2 mps 598 mmHg 48%
    10:00 +19°C° 0 mm 2 mps 599 mmHg 43%
    11:00 +21°C° 0 mm 2 mps 599 mmHg 38%
    12:00 +21°C° 0 mm 2 mps 599 mmHg 38%
    13:00 +21°C° 0 mm 2 mps 598 mmHg 39%
    14:00 +21°C° 0 mm 2 mps 597 mmHg 39%
    15:00 +19°C° 0 mm 2 mps 597 mmHg 46%
    16:00 +18°C° 0 mm 2 mps 596 mmHg 54%
    17:00 +16°C° 0 mm 2 mps 596 mmHg 61%
    18:00 +14°C° 0 mm 2 mps 595 mmHg 66%
    19:00 +11°C° 0 mm 3 mps 595 mmHg 72%
    20:00 +10°C° 0 mm 3 mps 595 mmHg 77%
    21:00 +9°C° 0 mm 3 mps 595 mmHg 78%
    22:00 +9°C° 0 mm 3 mps 594 mmHg 79%
    23:00 +9°C° 0 mm 3 mps 594 mmHg 80%
    Show more